Pittsfield, IL

6:59 AM CST on December 10, 2016 (GMT -0600)
Pittsfield Penstone Municipal

Weather History for KPPQ - January, 2013

Change the Weather History Date:

Saturday, January 5, 2013

  Actual Average (KUIN) Record (KUIN)
Temperature  
Mean Temperature 32 °F -  
Max Temperature 39 °F 31 °F 59 °F (1939)
Min Temperature 24 °F 16 °F -16 °F (1999)
Degree Days  
Heating Degree Days 34    
Moisture  
Dew Point 28 °F    
Average Humidity 78    
Maximum Humidity 91    
Minimum Humidity 70    
Precipitation  
Precipitation 0.02 in - - ()
Sea Level Pressure  
Sea Level Pressure 30.18 in    
Wind  
Wind Speed 7 mph (SSW)    
Max Wind Speed 15 mph    
Max Gust Speed 21 mph    
Visibility 10 miles    
Events Rain    
Averages and records for this station are not official NWS values.
T = Trace of Precipitation, MM = Missing Value Source: NWS Daily Summary

Daily Weather History Graph

Daily Weather History Graph

Search for Another Location

Airport or City:

Trip Planner

Search our weather history database for the weather conditions in past years. The results will help you decide how hot, cold, wet, or windy it might be!

Date:

Astronomy

Jan. 05, 2013 Rise Set
Actual Time 7:24 AM CST 4:53 PM CST
Civil Twilight 6:54 AM CST 5:23 PM CST
Nautical Twilight 6:20 AM CST 5:57 PM CST
Astronomical Twilight 5:47 AM CST 6:29 PM CST
Moon 12:31 AM CST (1/5) 11:42 AM CST (1/5)
Length of Visible Light 10h 29m
Length of Day
9h 29m
Last Quarter, 44% of the Moon is Illuminated
Jan 5
Last Quarter
Jan 11
New
Jan 18
First Quarter
Jan 26
Full
Feb 3
Last Quarter

Hourly Weather History & Observations

Time (CST) Temp. Windchill Dew Point Humidity Pressure Visibility Wind Dir Wind Speed Gust Speed Precip Events Conditions
12:15 AM 28.9 °F 22.8 °F 21.2 °F 73% 30.28 in 10.0 mi SSW 5.8 mph - N/A   Clear
12:35 AM 30.0 °F 24.1 °F 21.4 °F 70% 30.27 in 10.0 mi SSW 5.8 mph - N/A   Clear
12:55 AM 30.0 °F 24.1 °F 21.6 °F 71% 30.27 in 10.0 mi SSW 5.8 mph - N/A   Clear
1:15 AM 28.6 °F 22.4 °F 20.8 °F 73% 30.27 in 10.0 mi SSW 5.8 mph - N/A   Clear
1:35 AM 30.0 °F 23.2 °F 21.6 °F 71% 30.27 in 10.0 mi SSW 6.9 mph - N/A   Clear
1:55 AM 27.9 °F 22.6 °F 20.5 °F 74% 30.28 in 10.0 mi SSW 4.6 mph - N/A   Clear
2:15 AM 27.5 °F 22.2 °F 20.5 °F 75% 30.27 in 10.0 mi SSW 4.6 mph - N/A   Clear
2:35 AM 29.1 °F 23.0 °F 21.6 °F 73% 30.28 in 10.0 mi SSW 5.8 mph - N/A   Clear
2:55 AM 29.3 °F 24.3 °F 21.4 °F 72% 30.28 in 10.0 mi SSW 4.6 mph - N/A   Clear
3:15 AM 28.9 °F 23.9 °F 21.2 °F 73% 30.27 in 10.0 mi SSW 4.6 mph - N/A   Clear
3:35 AM 27.5 °F 23.6 °F 20.7 °F 75% 30.26 in 10.0 mi South 3.5 mph - N/A   Clear
3:55 AM 25.3 °F - 19.9 °F 80% 30.25 in 10.0 mi Calm Calm - N/A   Clear
4:15 AM 24.4 °F 18.6 °F 19.8 °F 82% 30.25 in 10.0 mi South 4.6 mph - N/A   Clear
4:35 AM 24.1 °F - 19.9 °F 84% 30.25 in 10.0 mi Calm Calm - N/A   Scattered Clouds
4:55 AM 24.1 °F 18.2 °F 20.1 °F 85% 30.25 in 10.0 mi SSW 4.6 mph - N/A   Scattered Clouds
5:15 AM 24.8 °F 17.9 °F 20.1 °F 82% 30.25 in 10.0 mi South 5.8 mph - N/A   Mostly Cloudy
5:35 AM 28.2 °F 23.1 °F 21.9 °F 77% 30.24 in 10.0 mi South 4.6 mph - N/A   Scattered Clouds
5:55 AM 28.0 °F 24.2 °F 21.7 °F 77% 30.25 in 10.0 mi SSW 3.5 mph - N/A   Clear
6:15 AM 28.9 °F 23.9 °F 22.1 °F 76% 30.25 in 10.0 mi South 4.6 mph - N/A   Clear
6:35 AM 30.0 °F 25.2 °F 23.0 °F 75% 30.25 in 10.0 mi SSW 4.6 mph - N/A   Clear
6:55 AM 30.2 °F 24.3 °F 23.0 °F 75% 30.25 in 10.0 mi SSW 5.8 mph - N/A   Clear
7:15 AM 31.3 °F 26.6 °F 23.9 °F 74% 30.26 in 10.0 mi SSW 4.6 mph - N/A   Clear
7:35 AM 31.3 °F - 24.3 °F 75% 30.25 in 10.0 mi Calm Calm - N/A   Clear
7:55 AM 30.6 °F - 24.3 °F 77% 30.25 in 10.0 mi Calm Calm - N/A   Clear
8:15 AM 32.0 °F 26.4 °F 24.8 °F 75% 30.25 in 10.0 mi SSW 5.8 mph - N/A   Clear
8:35 AM 32.0 °F 25.6 °F 25.0 °F 75% 30.26 in 10.0 mi South 6.9 mph - N/A   Scattered Clouds
8:55 AM 32.5 °F 27.1 °F 25.3 °F 75% 30.26 in 10.0 mi SSW 5.8 mph - N/A   Mostly Cloudy
9:15 AM 33.1 °F 26.9 °F 25.7 °F 74% 30.27 in 10.0 mi SSW 6.9 mph - N/A   Mostly Cloudy
9:55 AM 34.7 °F 28.8 °F 25.9 °F 70% 30.27 in 10.0 mi SW 6.9 mph - N/A   Mostly Cloudy
10:15 AM 35.8 °F 29.4 °F 27.1 °F 71% 30.27 in 10.0 mi WSW 8.1 mph - N/A   Mostly Cloudy
10:35 AM 37.4 °F 30.3 °F 30.2 °F 75% 30.26 in 10.0 mi WSW 10.4 mph - N/A   Scattered Clouds
10:55 AM 36.5 °F 32.7 °F 31.3 °F 81% 30.25 in 10.0 mi SW 4.6 mph - N/A   Mostly Cloudy
11:15 AM 37.0 °F 32.4 °F 32.0 °F 82% 30.23 in 10.0 mi SSW 5.8 mph - N/A   Scattered Clouds
11:35 AM 38.1 °F 34.6 °F 31.8 °F 78% 30.19 in 10.0 mi SSW 4.6 mph - N/A   Clear
11:55 AM 39.2 °F 33.0 °F 31.8 °F 75% 30.17 in 10.0 mi SSE 9.2 mph - N/A   Scattered Clouds
12:15 PM 38.5 °F 33.4 °F 30.2 °F 72% 30.17 in 10.0 mi South 6.9 mph - N/A   Scattered Clouds
12:35 PM 37.9 °F 33.5 °F 30.7 °F 75% 30.16 in 10.0 mi South 5.8 mph - N/A   Overcast
12:55 PM 38.5 °F 32.7 °F 30.7 °F 74% 30.16 in 10.0 mi South 8.1 mph - N/A   Overcast
1:15 PM 38.5 °F 33.4 °F 30.6 °F 73% 30.14 in 10.0 mi South 6.9 mph - N/A   Overcast
1:35 PM 38.3 °F 32.5 °F 30.9 °F 75% 30.13 in 10.0 mi SSW 8.1 mph - N/A   Overcast
1:55 PM 39.2 °F 32.0 °F 30.9 °F 72% 30.13 in 10.0 mi SW 11.5 mph - N/A   Overcast
2:15 PM 38.3 °F 29.7 °F 31.6 °F 77% 30.13 in 10.0 mi SW 15.0 mph 20.7 mph N/A Rain Light Rain
2:35 PM 36.5 °F 28.7 °F 32.7 °F 86% 30.13 in 7.0 mi SW 11.5 mph - N/A Rain Light Rain
2:55 PM 36.3 °F 27.1 °F 33.1 °F 88% 30.12 in 7.0 mi SSW 15.0 mph 19.6 mph N/A Rain Light Rain
3:15 PM 36.3 °F 28.9 °F 33.3 °F 89% 30.12 in 7.0 mi SSW 10.4 mph - 0.01 in Rain Light Rain
3:35 PM 36.5 °F 28.2 °F 33.6 °F 89% 30.12 in 10.0 mi SSW 12.7 mph 17.3 mph 0.01 in Rain Light Rain
3:55 PM 36.5 °F 29.2 °F 33.8 °F 90% 30.12 in 7.0 mi SSW 10.4 mph 16.1 mph 0.02 in Rain Light Rain
4:15 PM 36.1 °F 28.7 °F 33.8 °F 91% 30.11 in 10.0 mi South 10.4 mph - N/A Rain Light Rain
4:55 PM 36.5 °F 29.7 °F 33.8 °F 90% 30.11 in 10.0 mi South 9.2 mph - N/A   Light Drizzle
5:15 PM 36.5 °F 30.3 °F 33.8 °F 90% 30.11 in 10.0 mi South 8.1 mph - N/A Rain Light Rain
5:35 PM 36.5 °F 28.7 °F 33.4 °F 89% 30.11 in 10.0 mi SSW 11.5 mph - N/A   Overcast
5:55 PM 37.4 °F 30.3 °F 33.8 °F 87% 30.12 in 10.0 mi SSW 10.4 mph - N/A   Overcast
6:15 PM 37.4 °F 29.3 °F 33.1 °F 84% 30.12 in 10.0 mi SSW 12.7 mph 19.6 mph N/A   Overcast
6:35 PM 37.4 °F 29.8 °F 32.9 °F 84% 30.11 in 10.0 mi SSW 11.5 mph - N/A   Overcast
6:55 PM 37.6 °F 30.5 °F 32.9 °F 83% 30.12 in 10.0 mi SSW 10.4 mph - N/A   Overcast
7:15 PM 37.8 °F 30.2 °F 32.9 °F 83% 30.12 in 10.0 mi SSW 11.5 mph - N/A   Overcast
7:35 PM 38.1 °F 30.2 °F 32.9 °F 81% 30.11 in 10.0 mi SSW 12.7 mph - N/A   Overcast
7:55 PM 39.2 °F 32.5 °F 32.0 °F 75% 30.11 in 10.0 mi SSW 10.4 mph - N/A   Overcast
8:15 PM 38.3 °F 31.4 °F 32.4 °F 79% 30.10 in 10.0 mi SSW 10.4 mph - N/A   Overcast
8:35 PM 38.5 °F 31.1 °F 32.2 °F 78% 30.10 in 10.0 mi SSW 11.5 mph - N/A   Overcast
8:55 PM 39.2 °F 32.0 °F 32.2 °F 76% 30.10 in 10.0 mi SSW 11.5 mph - N/A   Overcast
9:15 PM 38.8 °F 32.1 °F 32.0 °F 76% 30.09 in 10.0 mi SSW 10.4 mph - N/A   Overcast
9:35 PM 39.0 °F 31.8 °F 32.2 °F 76% 30.08 in 10.0 mi SSW 11.5 mph - N/A   Overcast
9:55 PM 38.7 °F 31.4 °F 32.0 °F 77% 30.08 in 10.0 mi SSW 11.5 mph - N/A   Overcast
10:15 PM 39.0 °F 31.4 °F 32.0 °F 76% 30.07 in 10.0 mi SSW 12.7 mph 20.7 mph N/A   Overcast
10:35 PM 38.7 °F 31.4 °F 32.2 °F 78% 30.07 in 10.0 mi SW 11.5 mph - N/A   Overcast
10:55 PM 38.7 °F 31.8 °F 32.2 °F 78% 30.07 in 10.0 mi SW 10.4 mph - N/A   Overcast
11:15 PM 39.0 °F 31.8 °F 32.2 °F 76% 30.06 in 10.0 mi SW 11.5 mph - N/A   Overcast
11:35 PM 39.2 °F 33.0 °F 32.2 °F 76% 30.06 in 10.0 mi SW 9.2 mph - N/A   Overcast
11:55 PM 39.4 °F 32.3 °F 32.2 °F 75% 30.06 in 10.0 mi WSW 11.5 mph - N/A   Overcast